FW9685 Weather Reports


Display with metric or nautical units.
time (UTC)temp
F
wind
direction
speed
MPH
gust
MPH
rain 1hr
in
rain 24hr
in
rain mn
in
humidity
%
barometer
mb
20260903093101 82 206 10.0 16.0 0.00 0.00 0.00 42 1015.5
20260903091616 82 188 10.0 17.0 0.00 0.00 0.00 41 1015.6
20260903090104 83 204 9.0 16.0 0.00 0.00 0.00 41 1015.4
20260903084602 83 190 11.0 17.0 0.00 0.00 0.00 40 1015.3
20260903083103 83 192 9.0 12.0 0.00 0.00 0.00 40 1015.6
20260903081602 84 184 8.0 16.0 0.00 0.00 0.00 39 1015.6
20260903074606 84 178 6.0 13.0 0.00 0.00 0.00 38 1015.7
20260903073101 84 174 7.0 13.0 0.00 0.00 0.00 38 1015.8
20260903071614 84 173 6.0 10.0 0.00 0.00 0.00 39 1015.7
20260903070103 84 168 6.0 10.0 0.00 0.00 0.00 39 1015.8
20260903064603 84 189 5.0 10.0 0.00 0.00 0.00 38 1015.9
20260903063112 85 171 6.0 12.0 0.00 0.00 0.00 37 1015.7
20260903061605 85 163 7.0 11.0 0.00 0.00 0.00 37 1015.8
20260903060104 86 171 6.0 11.0 0.00 0.00 0.00 36 1015.8
20260903054559 86 161 8.0 14.0 0.00 0.00 0.00 35 1015.7
20260903053116 86 163 8.0 15.0 0.00 0.00 0.00 35 1015.7
20260903051602 86 167 8.0 12.0 0.00 0.00 0.00 35 1015.7
20260903050107 86 165 7.0 11.0 0.00 0.00 0.00 34 1015.6
20260903044603 87 160 8.0 14.0 0.00 0.00 0.00 34 1015.6
20260903043112 87 144 7.0 12.0 0.00 0.00 0.00 33 1015.7
20260903041601 87 146 9.0 14.0 0.00 0.00 0.00 32 1015.8
20260903034607 88 150 9.0 13.0 0.00 0.00 0.00 32 1015.9
20260903033102 88 143 8.0 12.0 0.00 0.00 0.00 31 1015.9
20260903031623 88 144 9.0 12.0 0.00 0.00 0.00 31 1015.8
20260903030106 87 134 7.0 10.0 0.00 0.00 0.00 30 1015.7
20260903024602 88 126 7.0 10.0 0.00 0.00 0.00 29 1015.4
20260903023102 88 124 8.0 9.0 0.00 0.00 0.00 29 1015.3
20260903021602 89 126 7.0 8.0 0.00 0.00 0.00 28 1014.9
20260903020107 90 120 7.0 9.0 0.00 0.00 0.00 27 1015.0
20260903014606 92 119 7.0 10.0 0.00 0.00 0.00 26 1014.9
20260903013102 92 126 8.0 13.0 0.00 0.00 0.00 25 1014.9
20260903011612 93 126 7.0 10.0 0.00 0.00 0.00 25 1014.9
20260903010107 94 128 8.0 12.0 0.00 0.00 0.00 24 1014.7
20260903004604 95 149 8.0 12.0 0.00 0.00 0.00 23 1014.8
20260903003119 95 139 10.0 16.0 0.00 0.00 0.00 23 1014.7
20260903001614 96 137 6.0 11.0 0.00 0.00 0.00 23 1014.7
20260903000108 96 130 4.0 9.0 0.00 0.00 0.00 23 1014.8
20260902234601 97 119 10.0 16.0 0.00 0.00 0.00 23 1015.0
20260902233104 97 103 3.0 11.0 0.00 0.00 0.00 23 1015.0
20260902231606 97 192 3.0 13.0 0.00 0.00 0.00 23 1015.1
20260902230107 97 132 1.0 17.0 0.00 0.00 0.00 23 1015.2
20260902224611 97 163 9.0 13.0 0.00 0.00 0.00 23 1015.2
20260902223103 97 189 4.0 15.0 0.00 0.00 0.00 23 1015.2
20260902221609 97 119 10.0 16.0 0.00 0.00 0.00 24 1015.3
20260902220110 97 84 9.0 17.0 0.00 0.00 0.00 23 1015.3
20260902214607 97 177 5.0 13.0 0.00 0.00 0.00 24 1015.4
20260902213101 97 0 2.0 10.0 0.00 0.00 0.00 24 1015.4
20260902211615 96 134 3.0 13.0 0.00 0.00 0.00 25 1015.7
20260902210119 96 71 6.0 17.0 0.00 0.00 0.00 25 1016.0
20260902204608 96 113 6.0 13.0 0.00 0.00 0.00 25 1016.2
20260902203103 96 139 0.0 9.0 0.00 0.00 0.00 25 1016.4
20260902201612 95 146 4.0 14.0 0.00 0.00 0.00 25 1016.9
20260902194600 95 177 6.0 15.0 0.00 0.00 0.00 27 1017.3
20260902193101 95 57 3.0 9.0 0.00 0.00 0.00 25 1017.3
20260902191608 95 144 3.0 14.0 0.00 0.00 0.00 27 1017.6
20260902190104 94 137 5.0 17.0 0.00 0.00 0.00 28 1017.9
20260902184657 94 172 3.0 14.0 0.00 0.00 0.00 27 1018.1
20260902183105 95 200 7.0 15.0 0.00 0.00 0.00 27 1018.3
20260902181616 94 150 5.0 18.0 0.00 0.00 0.00 27 1018.5
20260902180118 93 198 5.0 17.0 0.00 0.00 0.00 29 1018.7
20260902174605 93 237 3.0 17.0 0.00 0.00 0.00 29 1019.0
20260902173106 92 189 6.0 17.0 0.00 0.00 0.00 30 1019.3
20260902171606 92 146 8.0 14.0 0.00 0.00 0.00 31 1019.3
20260902170114 91 170 8.0 16.0 0.00 0.00 0.00 33 1019.4
20260902164601 91 221 9.0 15.0 0.00 0.00 0.00 36 1019.5
20260902163100 90 176 8.0 16.0 0.00 0.00 0.00 37 1019.4
20260902161603 89 208 11.0 19.0 0.00 0.00 0.00 38 1019.3
20260902160105 88 178 8.0 16.0 0.00 0.00 0.00 39 1019.4
20260902154604 88 180 11.0 18.0 0.00 0.00 0.00 39 1019.2
20260902153106 87 188 9.0 20.0 0.00 0.00 0.00 40 1019.2
20260902151603 86 186 10.0 21.0 0.00 0.00 0.00 41 1018.9
20260902144614 84 164 12.0 18.0 0.00 0.00 0.00 45 1019.3
20260902143105 83 173 11.0 18.0 0.00 0.00 0.00 46 1018.9
20260902141603 81 182 10.0 19.0 0.00 0.00 0.00 48 1018.9
20260902134604 79 163 12.0 17.0 0.00 0.00 0.00 50 1018.8
20260902133102 78 173 9.0 14.0 0.00 0.00 0.00 50 1018.7
20260902131607 78 167 7.0 12.0 0.00 0.00 0.00 51 1018.6
20260902130107 77 169 7.0 11.0 0.00 0.00 0.00 52 1018.3
20260902124604 76 168 6.0 10.0 0.00 0.00 0.00 52 1018.0
20260902123101 76 171 4.0 10.0 0.00 0.00 0.00 52 1017.9
20260902121604 77 167 8.0 12.0 0.00 0.00 0.00 52 1017.9
20260902120108 76 163 6.0 8.0 0.00 0.00 0.00 54 1017.7
20260902114601 76 153 6.0 9.0 0.00 0.00 0.00 54 1018.0
20260902113100 76 167 5.0 8.0 0.00 0.00 0.00 53 1018.0
20260902111604 76 171 5.0 9.0 0.00 0.00 0.00 53 1018.0
20260902110108 77 156 6.0 8.0 0.00 0.00 0.00 52 1018.1
20260902104600 77 164 5.0 9.0 0.00 0.00 0.00 51 1017.9
20260902103105 78 163 5.0 9.0 0.00 0.00 0.00 51 1017.9
20260902101603 78 169 6.0 10.0 0.00 0.00 0.00 50 1018.0
20260902100113 79 169 6.0 10.0 0.00 0.00 0.00 49 1017.9
20260902094617 79 170 5.0 9.0 0.00 0.00 0.00 49 1018.0